Regional Weather Roundup
Issued by NWS Northern Indiana

Home | Current Version | Previous Version | Graphics & Text | Print | Product List | Glossary On
Versions: 1 2 3 4 5 6 7 8 9 10 11 12 13 14 15 16 17 18 19 20 21 22 23 24 25 26 27 28 29 30 31 32 33 34 35 36 37 38 39 40 41 42 43 44 45 46 47 48 49 50
569
ASUS43 KIWX 121410
RWRIWX

KIWX WEATHER ROUNDUP
NATIONAL WEATHER SERVICE NORTHERN INDIANA
900 AM EST FRI FEB 12 2016

NOTE: "FAIR" INDICATES FEW OR NO CLOUDS BELOW 12,000 FEET WITH NO
SIGNIFICANT WEATHER AND/OR OBSTRUCTIONS TO VISIBILITY.

* THESE STATIONS ARE NOT UNDER NWS QUALITY CONTROL. THEY ALSO MAY NOT
  REPORT WEATHER SUCH AS PRECIPITATION OR FOG.

INZ001>027-121500-
NORTHERN INDIANA

CITY           SKY/WX    TMP DP  RH WIND       PRES   REMARKS
GARY*          CLOUDY    23   9  54 W17       30.16  WCI   9
VALPARAISO     CLOUDY    20  13  74 W12       30.14S WCI   8
MICHIGAN CITY* CLOUDY    19  12  73 SW7       30.14S WCI  10
LAPORTE*       CLOUDY    20  15  78 W8        30.13S WCI  11
KNOX*          CLOUDY    21  14  73 W10       30.14F WCI  10
SOUTH BEND     CLOUDY    17  10  74 SW12      30.11F WCI   4
ELKHART*       CLOUDY    19   9  63 SW10      30.11F WCI   8
GOSHEN         CLOUDY    19   9  65 SW13      30.10F WCI   6
MONTICELLO*    CLOUDY    21  10  63 W10       30.16F WCI   9
LOGANSPORT*    CLOUDY    21   9  58 SW10      30.16F WCI  10
ROCHESTER*     PTSUNNY   23  10  58 SW8       30.14F WCI  14
WARSAW*        CLOUDY    19  10  68 SW9       30.12F WCI   9
ANGOLA*        CLOUDY    18   9  68 SW8       30.06F WCI   7
FORT WAYNE     CLOUDY    19  10  68 SW13      30.13F WCI   6
HUNTINGTON*    CLOUDY    19   7  60 SW6       30.13F WCI  10
PERU/GRISSOM   CLOUDY    20  12  70 SW10      30.13F WCI   9
MARION*        CLOUDY    19   7  57 SW8       30.16S WCI   9

$$
INZ028>050-121500-
CENTRAL INDIANA

CITY           SKY/WX    TMP DP  RH WIND       PRES   REMARKS
LAFAYETTE      FLURRIES  20  12  71 W8        30.18F WCI  10
KOKOMO*        CLOUDY    19   9  63 W9        30.15F WCI   9
MUNCIE*        CLOUDY    20   8  60 SW6       30.15S WCI  12
INDIANAPOLIS   CLOUDY    21  10  62 SW6       30.17S WCI  13

$$
MIZ043>046-050>051-056>058-064>065-071>073-077>080-121500-
SOUTHWEST LOWER MICHIGAN

CITY           SKY/WX    TMP DP  RH WIND       PRES   REMARKS
BATTLE CREEK   CLOUDY    18   9  68 SW13      30.04F WCI   5
BENTON HARBOR  CLOUDY    23  12  62 W15G23    30.09F WCI  10
COLDWATER*     CLOUDY    18   9  67 SW12      30.06F WCI   6
HILLSDALE*     CLOUDY    17   6  63 SW12      30.03F WCI   4
HOLLAND        LGT SNOW  21  14  74 W14G23    30.06S WCI   8
GRAND RAPIDS   LGT SNOW  21  13  71 NW12      30.02F WCI   9
KALAMAZOO      FLURRIES  18   9  68 SW8       30.06S WCI   8
STURGIS*       CLOUDY    18   9  68 SW10      30.06F WCI   6
THREE RIVERS*  CLOUDY    19  10  70 SW9       30.07F WCI   7

$$
OHZ001>008-015>018-024>025-121500-
NORTHWEST OHIO

CITY           SKY/WX    TMP DP  RH WIND       PRES   REMARKS
DEFIANCE       CLOUDY    20   9  62 SW12      30.12F WCI   8
FINDLAY        CLOUDY    19  11  70 SW10      30.12F WCI   7
TOLEDO EXPRESS CLOUDY    17   8  67 SW10      30.10F WCI   5
TOLEDO METCALF   N/A    N/A N/A N/A MISG      30.12F
LIMA           CLOUDY    18  10  71 SW10      30.12F WCI   6

$$
AND FOR LAKE MICHIGAN COASTAL AND OPEN LAKE BUOY OBSERVATIONS

STATION/POSITION TEMP    WIND        PRES    VSBY  WAVE
                 AIR SEA DIR/SP/G                  HT/PER
                 (F)     (DEG/KT/KT) (MB)    (MI)  (FT/S)
CALUMET HARBOR    20     230/  8/ 11 1019.9F
MICHIGAN CITY     22     240/ 22/ 24   N/A
BURNS HARBOR      20     220/  9/ 14 1021.3F
SAINT JOSEPH      25     240/ 18/ 22 1020.0R

$$
&&




USA.gov is the U.S. government's official web portal to all federal, state and local government web resources and services.